Location: Harmony
(28.2000°N, 81.1500°W)
Time: 05:14:00
(UTC-04:00)

Cosmos 1553 Rocket - Pass Details

Date: 18 December 2017
Orbit: 942 x 1007 km, 82.9° (Epoch: 22 April)

Event Time Altitude Azimuth Distance (km) Brightness Sun altitude
Rises 18:43:10 0° 176° (S) 3,715 7.2 -15.3°
Reaches altitude 10° 18:45:43 10° 173° (S) 2,771 6.5 -15.8°
Maximum altitude 18:52:01 66° 93° (E) 1,093 4.0 -17.2°
Drops below altitude 10° 18:58:20 10° 12° (NNE) 2,778 6.1 -18.5°
Sets 19:00:53 0° 10° (N) 3,726 6.8 -19.0°
